Skip Page Navigation
NASA JPL Caltech
NASA Logo - Jet Propulsion Laboratory + View the NASA Portal
+ Center for Near-Earth Object Studies
JPL Home Earth Solar System Stars & Galaxies Technology
JPL Solar System Dynamics
BODIES ORBITS EPHEMERIDES TOOLS PHYSICAL DATA DISCOVERY FAQ SITE MAP
IMPORTANT: The SSD Announcement email list is now available. Major changes are coming in the near future, including possible hostname and/or URL changes. To be notified of such changes, subscribe to this email list.

Please visit this page for more details.


JPL Small-Body Database Browser
Search: [ help ]  
117005 (2004 HU60)
Classification: Main-belt Asteroid          SPK-ID: 2117005
Ephemeris | Orbit Diagram | Orbital Elements | Mission Design | Physical Parameters | Discovery Circumstances | Close-Approach Data ]

[ show orbit diagram ]
Orbital Elements at Epoch 2458600.5 (2019-Apr-27.0) TDB
Reference: JPL 24 (heliocentric ecliptic J2000)
 Element Value Uncertainty (1-sigma)   Units 
e .1711546533553596 4.0755e-08  
a 2.707534240335034 1.2676e-08 au
q 2.244127155982725 1.1353e-07 au
i 12.77053358800087 4.5669e-06 deg
node 185.3763308556741 1.6509e-05 deg
peri 192.8952841939823 2.0084e-05 deg
M 11.94178650180329 1.2212e-05 deg
tp 2458546.520834660728
(2019-Mar-04.02083466)
5.5013e-05 TDB
period 1627.269045481896
4.46
1.1428e-05
3.129e-08
d
yr
n .221229550822919 1.5536e-09 deg/d
Q 3.170941324687344 1.4845e-08 au
  Orbit Determination Parameters
   # obs. used (total)      891  
   data-arc span      8420 days (23.05 yr)  
   first obs. used      1996-10-12  
   last obs. used      2019-11-01  
   planetary ephem.      DE431  
   SB-pert. ephem.      SB431-N16  
   condition code      0  
   norm. resid. RMS      .53293  
   source      ORB  
   producer      Otto Matic  
   solution date      2019-Dec-04 10:59:18  

Additional Information
 Earth MOID = 1.24629 au 
 Jupiter MOID = 2.29021 au 
 T_jup = 3.308 
[ show covariance matrix ]

Ephemeris | Orbit Diagram | Orbital Elements | Mission Design | Physical Parameters | Discovery Circumstances | Close-Approach Data ]

Physical Parameter Table
Parameter Symbol Value Units Sigma Reference Notes
absolute magnitude H 14.8   n/a MPO453640  

117005 (2004 HU60)          Discovered 2004-Apr-25 by Bickel, W. at Bergisch Gladbach
Reference: 20051019/Numbers.arcLast Updated: 2005-10-26

[ show close-approach data ]
Alternate Designations
 2004 HU60 = 2001 VQ97 
Ephemeris | Orbit Diagram | Orbital Elements | Mission Design | Physical Parameters | Discovery Circumstances | Close-Approach Data ]
ABOUT SSD CREDITS/AWARDS PRIVACY/COPYRIGHT GLOSSARY LINKS
FirstGov 2019-Dec-11 19:50 UT
(server date/time)  
NASA Home Page
Site Manager:   Ryan S. Park
Webmaster  Alan B. Chamberlin